Location: Demmingen
(48.6757°N, 10.4375°E)
Time: 10:39:16
(UTC+00:00)

USA 267 - Pass Details

Date: 18 August 2024
Orbit: 1096 x 1111 km, 123.1° (Epoch: 03 September)

Event Time Altitude Azimuth Distance (km) Brightness Sun altitude
Exits shadow 18:55:58 - 145° (SE) 3,812 5.5 -5.2°
Reaches altitude 10° 18:58:18 10° 151° (SSE) 2,953 5.0 -5.6°
Maximum altitude 19:04:34 48° 224° (SW) 1,407 4.0 -6.5°
Drops below altitude 10° 19:10:53 10° 298° (WNW) 2,976 7.3 -7.4°
Sets 19:13:30 0° 304° (NW) 3,939 8.7 -7.8°
